Find STARLINK-37997

NORAD ID: 799501029 Int'l Des: 2026-146F Constellation: starlink operational

Aktuelle Ansicht

3D-Globus wird geladen...

About STARLINK-37997

STARLINK-37997 (NORAD 799501029) is a starlink constellation satellite launched Jun 12, 2026

Über STARLINK-37997

Beschreibung wird geladen...

Nächste Überflüge

Passes for default location (London). Set your location on the main map for personalized predictions.

Höhenverlauf

Loading altitude history...

Zweizeiliger Elementsatz

1 99999C 2026146F 26176.36993056 .00672220 00000-0 103720-3 0 1761
2 99999 97.2858 22.0293 0011146 279.6272 57.7982 16.03777042 18
Epoch: 25. Juni 2026 • Age: 9 hours